Location: Killam
(52.7910°N, 111.8608°W)
Time: 20:45:21
(UTC+00:00)

A-11 Canister half - Pass Details

Date: 18 February 2026
Orbit: 1525 x 1683 km, 47.3° (Epoch: 5 March)

Event Time Altitude Azimuth Distance (km) Brightness Sun altitude
Rises 03:22:40 0° 268° (W) 4,687 12.8 -24.5°
Reaches altitude 10° 03:25:45 10° 265° (W) 3,697 11.9 -24.9°
Maximum altitude 03:34:50 62° 188° (S) 1,691 9.1 -26.2°
Enters shadow 03:37:49 44° 132° (SE) 2,015 9.1 -26.7°
Drops below altitude 10° 03:43:59 10° 111° (ESE) 3,722 - -27.6°
Sets 03:47:06 0° 108° (ESE) 4,720 - -28.0°
